TimeEST,TemperatureF,Dew PointF,Humidity,Sea Level PressureIn,VisibilityMPH,Wind Direction,Wind SpeedMPH,Gust SpeedMPH,PrecipitationIn,Events,Conditions,WindDirDegrees,DateUTC
12:15 AM,46.4,44.6,93,30.40,7.0,Calm,Calm,-,N/A,,Scattered Clouds,0,2013-11-22 05:15:00
12:35 AM,46.4,44.6,93,30.39,0.2,Calm,Calm,-,N/A,Fog,Fog,0,2013-11-22 05:35:00
12:55 AM,46.4,44.6,93,30.39,5.0,South,3.5,-,N/A,,Overcast,170,2013-11-22 05:55:00
1:15 AM,46.4,44.6,93,30.38,7.0,South,3.5,-,N/A,,Scattered Clouds,170,2013-11-22 06:15:00
1:35 AM,46.4,44.6,93,30.37,7.0,SSE,3.5,-,N/A,,Clear,160,2013-11-22 06:35:00
1:55 AM,46.4,44.6,93,30.37,10.0,Calm,Calm,-,N/A,,Mostly Cloudy,0,2013-11-22 06:55:00
2:15 AM,48.2,46.4,93,30.37,10.0,Calm,Calm,-,N/A,,Overcast,0,2013-11-22 07:15:00
2:35 AM,48.2,46.4,93,30.37,10.0,Calm,Calm,-,N/A,,Overcast,0,2013-11-22 07:35:00
2:55 AM,50.0,46.4,87,30.37,10.0,Calm,Calm,-,N/A,,Overcast,0,2013-11-22 07:55:00
3:15 AM,50.0,48.2,94,30.35,7.0,South,3.5,-,N/A,,Overcast,170,2013-11-22 08:15:00
3:35 AM,50.0,48.2,94,30.34,7.0,Calm,Calm,-,N/A,,Mostly Cloudy,0,2013-11-22 08:35:00
3:58 AM,51.8,48.2,88,30.33,7.0,Calm,Calm,-,N/A,,Overcast,0,2013-11-22 08:58:00
4:16 AM,51.8,48.2,88,30.33,10.0,Calm,Calm,-,N/A,,Overcast,0,2013-11-22 09:16:00
4:35 AM,51.8,50.0,94,30.33,7.0,South,3.5,-,N/A,,Overcast,180,2013-11-22 09:35:00
4:55 AM,53.6,51.8,94,30.32,10.0,South,4.6,-,N/A,,Mostly Cloudy,170,2013-11-22 09:55:00
5:15 AM,53.6,51.8,94,30.31,4.0,South,3.5,-,N/A,,Scattered Clouds,190,2013-11-22 10:15:00
5:35 AM,53.6,51.8,94,30.31,1.5,SW,3.5,-,N/A,,Mist,220,2013-11-22 10:35:00
5:56 AM,51.8,50.0,94,30.31,0.2,SSW,3.5,-,N/A,Fog,Fog,210,2013-11-22 10:56:00
6:15 AM,53.6,51.8,94,30.30,4.0,South,5.8,-,N/A,,Scattered Clouds,190,2013-11-22 11:15:00
6:36 AM,53.6,51.8,94,30.29,5.0,South,4.6,-,N/A,,Clear,180,2013-11-22 11:36:00
6:55 AM,55.4,51.8,88,30.29,5.0,SSW,5.8,-,N/A,,Mist,200,2013-11-22 11:55:00
7:15 AM,55.4,53.6,94,30.29,5.0,South,4.6,-,N/A,,Clear,190,2013-11-22 12:15:00
7:35 AM,55.4,53.6,94,30.30,7.0,SW,5.8,-,N/A,,Clear,220,2013-11-22 12:35:00
7:55 AM,55.4,53.6,94,30.30,10.0,SW,4.6,-,N/A,,Mostly Cloudy,230,2013-11-22 12:55:00
8:15 AM,55.4,53.6,94,30.30,10.0,SW,6.9,-,N/A,,Overcast,230,2013-11-22 13:15:00
8:35 AM,57.2,55.4,94,30.30,10.0,SW,6.9,-,N/A,,Mostly Cloudy,230,2013-11-22 13:35:00
8:55 AM,57.2,55.4,94,30.29,10.0,SW,6.9,-,N/A,,Mostly Cloudy,220,2013-11-22 13:55:00
9:15 AM,60.8,57.2,88,30.27,10.0,SW,10.4,-,N/A,,Scattered Clouds,220,2013-11-22 14:15:00
9:35 AM,62.6,57.2,82,30.27,10.0,SW,9.2,-,N/A,,Clear,220,2013-11-22 14:35:00
9:55 AM,64.4,57.2,77,30.27,10.0,SW,12.7,16.1,N/A,,Clear,230,2013-11-22 14:55:00
10:18 AM,66.2,55.4,68,30.26,10.0,SSW,11.5,20.7,N/A,,Scattered Clouds,210,2013-11-22 15:18:00
10:55 AM,66.2,55.4,68,30.24,10.0,SW,10.4,-,N/A,,Mostly Cloudy,230,2013-11-22 15:55:00
11:15 AM,64.4,55.4,73,30.23,10.0,SW,11.5,17.3,N/A,,Mostly Cloudy,220,2013-11-22 16:15:00
11:35 AM,64.4,55.4,73,30.22,10.0,SW,9.2,-,N/A,,Overcast,230,2013-11-22 16:35:00
11:55 AM,64.4,53.6,68,30.20,10.0,SSW,11.5,17.3,N/A,,Mostly Cloudy,210,2013-11-22 16:55:00
12:15 PM,64.4,55.4,73,30.19,10.0,SW,10.4,-,N/A,,Mostly Cloudy,230,2013-11-22 17:15:00
12:35 PM,64.4,55.4,73,30.18,10.0,SW,11.5,-,N/A,,Mostly Cloudy,220,2013-11-22 17:35:00
12:56 PM,66.2,55.4,68,30.17,10.0,SW,11.5,-,N/A,,Mostly Cloudy,230,2013-11-22 17:56:00
1:17 PM,66.2,55.4,68,30.16,10.0,SW,9.2,18.4,N/A,,Scattered Clouds,220,2013-11-22 18:17:00
1:35 PM,66.2,55.4,68,30.15,10.0,SW,10.4,-,N/A,,Clear,220,2013-11-22 18:35:00
1:55 PM,66.2,55.4,68,30.14,10.0,SW,13.8,17.3,N/A,,Clear,230,2013-11-22 18:55:00
2:35 PM,68.0,55.4,64,30.13,10.0,SW,6.9,16.1,N/A,,Clear,220,2013-11-22 19:35:00
2:55 PM,68.0,55.4,64,30.12,10.0,SW,5.8,-,N/A,,Scattered Clouds,230,2013-11-22 19:55:00
3:15 PM,68.0,57.2,68,30.11,10.0,SSW,6.9,-,N/A,,Scattered Clouds,210,2013-11-22 20:15:00
3:35 PM,68.0,57.2,68,30.11,10.0,SSW,3.5,-,N/A,,Mostly Cloudy,210,2013-11-22 20:35:00
3:55 PM,68.0,57.2,68,30.10,10.0,SSW,4.6,-,N/A,,Overcast,210,2013-11-22 20:55:00
4:35 PM,68.0,57.2,68,30.09,10.0,SSW,8.1,-,N/A,,Mostly Cloudy,210,2013-11-22 21:35:00
4:55 PM,68.0,57.2,68,30.07,10.0,SSW,8.1,-,N/A,,Light Drizzle,200,2013-11-22 21:55:00
5:15 PM,66.2,57.2,73,30.07,10.0,SSW,6.9,-,N/A,,Scattered Clouds,210,2013-11-22 22:15:00
5:35 PM,66.2,57.2,73,30.06,10.0,SSW,5.8,-,N/A,,Clear,200,2013-11-22 22:35:00
5:57 PM,66.2,57.2,73,30.06,10.0,SSW,6.9,-,N/A,,Clear,210,2013-11-22 22:57:00
6:16 PM,66.2,57.2,73,30.06,10.0,SSW,5.8,-,N/A,,Scattered Clouds,210,2013-11-22 23:16:00
6:35 PM,66.2,57.2,73,30.05,10.0,SSW,8.1,-,N/A,,Mostly Cloudy,210,2013-11-22 23:35:00
6:55 PM,68.0,57.2,68,30.05,10.0,SW,9.2,-,N/A,,Overcast,220,2013-11-22 23:55:00
7:15 PM,69.8,57.2,64,30.05,10.0,SW,9.2,-,N/A,,Overcast,230,2013-11-23 00:15:00
7:35 PM,69.8,59.0,68,30.05,7.0,SW,9.2,-,N/A,Rain,Light Rain,230,2013-11-23 00:35:00
7:55 PM,66.2,60.8,83,30.04,10.0,SW,8.1,-,N/A,,Light Drizzle,220,2013-11-23 00:55:00
8:15 PM,68.0,60.8,78,30.03,10.0,SW,9.2,-,N/A,,Light Drizzle,220,2013-11-23 01:15:00
8:35 PM,68.0,60.8,78,30.03,10.0,SW,9.2,-,N/A,,Overcast,220,2013-11-23 01:35:00
8:55 PM,68.0,60.8,78,30.02,10.0,SW,8.1,-,N/A,,Light Drizzle,230,2013-11-23 01:55:00
9:15 PM,68.0,60.8,78,30.02,10.0,SW,9.2,-,N/A,,Overcast,230,2013-11-23 02:15:00
9:35 PM,68.0,60.8,78,30.02,7.0,SW,9.2,-,N/A,Rain,Rain,230,2013-11-23 02:35:00
9:55 PM,68.0,60.8,78,30.02,10.0,SW,12.7,-,N/A,Rain,Light Rain,230,2013-11-23 02:55:00
10:15 PM,66.2,60.8,83,30.01,10.0,SW,11.5,-,0.01,,Drizzle,230,2013-11-23 03:15:00
10:35 PM,66.2,60.8,83,30.01,7.0,WSW,11.5,18.4,0.01,Rain,Light Rain,240,2013-11-23 03:35:00
10:55 PM,66.2,60.8,83,30.02,7.0,WSW,13.8,20.7,0.05,Rain,Rain,240,2013-11-23 03:55:00
11:16 PM,66.2,60.8,83,30.01,10.0,WSW,10.4,-,N/A,Rain,Light Rain,240,2013-11-23 04:16:00
11:35 PM,66.2,60.8,83,30.01,10.0,WSW,8.1,-,N/A,,Overcast,240,2013-11-23 04:35:00
11:55 PM,64.4,60.8,88,30.01,10.0,WSW,6.9,-,N/A,,Light Drizzle,240,2013-11-23 04:55:00